Year,Month,Day,Hour,Minute,Value (Times are PST for windspeed in km/hr)
2006,08,31,00,00,0.40
2006,08,31,00,01,0.10
2006,08,31,00,02,0.00
2006,08,31,00,03,0.00
2006,08,31,00,04,0.00
2006,08,31,00,05,0.00
2006,08,31,00,06,0.00
2006,08,31,00,07,0.00
2006,08,31,00,08,0.00
2006,08,31,00,09,0.00
2006,08,31,00,10,0.00
2006,08,31,00,11,0.00
2006,08,31,00,12,0.00
2006,08,31,00,13,0.00
2006,08,31,00,14,0.00
2006,08,31,00,15,0.00
2006,08,31,00,16,0.00
2006,08,31,00,17,0.00
2006,08,31,00,18,0.00
2006,08,31,00,19,0.00
2006,08,31,00,20,0.00
2006,08,31,00,21,0.10
2006,08,31,00,22,0.00
2006,08,31,00,23,0.00
2006,08,31,00,24,0.00
2006,08,31,00,25,0.00
2006,08,31,00,26,0.00
2006,08,31,00,27,0.00
2006,08,31,00,28,0.00
2006,08,31,00,29,0.00
2006,08,31,00,30,0.00
2006,08,31,00,31,0.00
2006,08,31,00,32,0.00
2006,08,31,00,33,0.00
2006,08,31,00,34,0.00
2006,08,31,00,35,0.00
2006,08,31,00,36,0.00
2006,08,31,00,37,0.00
2006,08,31,00,38,0.00
2006,08,31,00,39,0.00
2006,08,31,00,40,0.00
2006,08,31,00,41,0.00
2006,08,31,00,42,0.10
2006,08,31,00,43,0.10
2006,08,31,00,44,0.00
2006,08,31,00,45,0.00
2006,08,31,00,46,0.00
2006,08,31,00,47,0.00
2006,08,31,00,48,0.00
2006,08,31,00,49,0.00
2006,08,31,00,50,0.00
2006,08,31,00,51,0.00
2006,08,31,00,52,0.30
2006,08,31,00,53,0.10
2006,08,31,00,54,0.10
2006,08,31,00,55,0.00
2006,08,31,00,56,0.10
2006,08,31,00,57,0.00
2006,08,31,00,58,0.00
2006,08,31,00,59,0.00
2006,08,31,01,00,0.00
2006,08,31,01,01,0.00
2006,08,31,01,02,0.00
2006,08,31,01,03,0.00
2006,08,31,01,04,0.00
2006,08,31,01,05,0.00
2006,08,31,01,06,0.00
2006,08,31,01,07,0.00
2006,08,31,01,08,0.00
2006,08,31,01,09,0.00
2006,08,31,01,10,0.00
2006,08,31,01,11,0.00
2006,08,31,01,12,0.00
2006,08,31,01,13,0.00
2006,08,31,01,14,0.00
2006,08,31,01,15,0.00
2006,08,31,01,16,0.00
2006,08,31,01,17,0.00
2006,08,31,01,18,0.00
2006,08,31,01,19,0.00
2006,08,31,01,20,0.00
2006,08,31,01,21,0.00
2006,08,31,01,22,0.00
2006,08,31,01,23,0.00
2006,08,31,01,24,0.00
2006,08,31,01,25,0.00
2006,08,31,01,26,0.00
2006,08,31,01,27,0.00
2006,08,31,01,28,0.00
2006,08,31,01,29,0.00
2006,08,31,01,30,0.00
2006,08,31,01,31,0.00
2006,08,31,01,32,0.00
2006,08,31,01,33,0.00
2006,08,31,01,34,0.00
2006,08,31,01,35,0.00
2006,08,31,01,36,0.00
2006,08,31,01,37,0.00
2006,08,31,01,38,0.00
2006,08,31,01,39,0.00
2006,08,31,01,40,0.00
2006,08,31,01,41,0.00
2006,08,31,01,42,0.00
2006,08,31,01,43,0.00
2006,08,31,01,44,0.00
2006,08,31,01,45,0.00
2006,08,31,01,46,0.00
2006,08,31,01,47,0.00
2006,08,31,01,48,0.00
2006,08,31,01,49,0.00
2006,08,31,01,50,0.00
2006,08,31,01,51,0.00
2006,08,31,01,52,0.00
2006,08,31,01,53,0.00
2006,08,31,01,54,0.00
2006,08,31,01,55,0.00
2006,08,31,01,56,0.00
2006,08,31,01,57,0.00
2006,08,31,01,58,0.00
2006,08,31,01,59,0.00
2006,08,31,02,00,0.00
2006,08,31,02,01,0.00
2006,08,31,02,02,0.00
2006,08,31,02,03,0.00
2006,08,31,02,04,0.00
2006,08,31,02,05,0.00
2006,08,31,02,06,0.00
2006,08,31,02,07,0.00
2006,08,31,02,08,0.00
2006,08,31,02,09,0.00
2006,08,31,02,10,0.00
2006,08,31,02,11,0.00
2006,08,31,02,12,0.00
2006,08,31,02,13,0.00
2006,08,31,02,14,0.00
2006,08,31,02,15,0.10
2006,08,31,02,16,0.10
2006,08,31,02,17,0.00
2006,08,31,02,18,0.00
2006,08,31,02,19,0.00
2006,08,31,02,20,0.00
2006,08,31,02,21,0.00
2006,08,31,02,22,0.00
2006,08,31,02,23,0.00
2006,08,31,02,24,0.00
2006,08,31,02,25,0.00
2006,08,31,02,26,0.00
2006,08,31,02,27,0.00
2006,08,31,02,28,0.30
2006,08,31,02,29,1.80
2006,08,31,02,30,0.00
2006,08,31,02,31,0.00
2006,08,31,02,32,0.00
2006,08,31,02,33,0.00
2006,08,31,02,34,0.00
2006,08,31,02,35,0.00
2006,08,31,02,36,0.00
2006,08,31,02,37,0.00
2006,08,31,02,38,0.00
2006,08,31,02,39,0.00
2006,08,31,02,40,0.40
2006,08,31,02,41,0.00
2006,08,31,02,42,0.00
2006,08,31,02,43,0.00
2006,08,31,02,44,0.00
2006,08,31,02,45,0.00
2006,08,31,02,46,0.00
2006,08,31,02,47,0.00
2006,08,31,02,48,0.00
2006,08,31,02,49,0.00
2006,08,31,02,50,0.00
2006,08,31,02,51,0.00
2006,08,31,02,52,0.00
2006,08,31,02,53,0.00
2006,08,31,02,54,0.00
2006,08,31,02,55,0.00
2006,08,31,02,56,0.00
2006,08,31,02,57,0.10
2006,08,31,02,58,0.00
2006,08,31,02,59,0.00
2006,08,31,03,00,0.40
2006,08,31,03,01,0.70
2006,08,31,03,02,0.00
2006,08,31,03,03,0.00
2006,08,31,03,04,0.00
2006,08,31,03,05,0.00
2006,08,31,03,06,0.00
2006,08,31,03,07,0.00
2006,08,31,03,08,0.00
2006,08,31,03,09,0.00
2006,08,31,03,10,0.00
2006,08,31,03,11,0.00
2006,08,31,03,12,0.00
2006,08,31,03,13,0.00
2006,08,31,03,14,0.00
2006,08,31,03,15,0.00
2006,08,31,03,16,0.00
2006,08,31,03,17,0.00
2006,08,31,03,18,0.00
2006,08,31,03,19,0.10
2006,08,31,03,20,0.00
2006,08,31,03,21,0.00
2006,08,31,03,22,0.00
2006,08,31,03,23,0.00
2006,08,31,03,24,0.00
2006,08,31,03,25,0.00
2006,08,31,03,26,0.00
2006,08,31,03,27,0.00
2006,08,31,03,28,0.00
2006,08,31,03,29,0.00
2006,08,31,03,30,0.00
2006,08,31,03,31,0.00
2006,08,31,03,32,0.00
2006,08,31,03,33,0.00
2006,08,31,03,34,0.00
2006,08,31,03,35,0.00
2006,08,31,03,36,0.00
2006,08,31,03,37,0.00
2006,08,31,03,38,0.00
2006,08,31,03,39,0.00
2006,08,31,03,40,0.00
2006,08,31,03,41,0.00
2006,08,31,03,42,0.00
2006,08,31,03,43,0.00
2006,08,31,03,44,0.00
2006,08,31,03,45,0.00
2006,08,31,03,46,0.00
2006,08,31,03,47,0.00
2006,08,31,03,48,0.00
2006,08,31,03,49,0.00
2006,08,31,03,50,0.00
2006,08,31,03,51,0.00
2006,08,31,03,52,0.00
2006,08,31,03,53,0.00
2006,08,31,03,54,0.00
2006,08,31,03,55,0.00
2006,08,31,03,56,0.00
2006,08,31,03,57,0.10
2006,08,31,03,58,0.00
2006,08,31,03,59,0.00
2006,08,31,04,00,0.00
2006,08,31,04,01,0.00
2006,08,31,04,02,0.00
2006,08,31,04,03,0.60
2006,08,31,04,04,0.10
2006,08,31,04,05,0.00
2006,08,31,04,06,0.00
2006,08,31,04,07,0.00
2006,08,31,04,08,0.00
2006,08,31,04,09,0.00
2006,08,31,04,10,0.00
2006,08,31,04,11,0.00
2006,08,31,04,12,0.00
2006,08,31,04,13,0.00
2006,08,31,04,14,0.00
2006,08,31,04,15,0.00
2006,08,31,04,16,0.00
2006,08,31,04,17,0.00
2006,08,31,04,18,0.00
2006,08,31,04,19,0.00
2006,08,31,04,20,0.00
2006,08,31,04,21,0.00
2006,08,31,04,22,0.00
2006,08,31,04,23,0.00
2006,08,31,04,24,0.00
2006,08,31,04,25,0.00
2006,08,31,04,26,0.00
2006,08,31,04,27,0.00
2006,08,31,04,28,0.00
2006,08,31,04,29,0.00
2006,08,31,04,30,0.00
2006,08,31,04,31,0.00
2006,08,31,04,32,0.00
2006,08,31,04,33,0.00
2006,08,31,04,34,0.00
2006,08,31,04,35,0.00
2006,08,31,04,36,0.00
2006,08,31,04,37,0.00
2006,08,31,04,38,0.00
2006,08,31,04,39,0.00
2006,08,31,04,40,0.00
2006,08,31,04,41,0.00
2006,08,31,04,42,0.00
2006,08,31,04,43,0.00
2006,08,31,04,44,0.00
2006,08,31,04,45,0.00
2006,08,31,04,46,0.00
2006,08,31,04,47,0.80
2006,08,31,04,48,0.10
2006,08,31,04,49,0.00
2006,08,31,04,50,0.00
2006,08,31,04,51,0.00
2006,08,31,04,52,0.00
2006,08,31,04,53,0.00
2006,08,31,04,54,0.00
2006,08,31,04,55,0.00
2006,08,31,04,56,1.20
2006,08,31,04,57,1.20
2006,08,31,04,58,0.00
2006,08,31,04,59,0.00
2006,08,31,05,00,0.00
2006,08,31,05,01,0.00
2006,08,31,05,02,0.00
2006,08,31,05,03,0.00
2006,08,31,05,04,0.00
2006,08,31,05,05,0.00
2006,08,31,05,06,0.00
2006,08,31,05,07,0.00
2006,08,31,05,08,0.00
2006,08,31,05,09,0.50
2006,08,31,05,10,0.00
2006,08,31,05,11,0.00
2006,08,31,05,12,0.00
2006,08,31,05,13,0.00
2006,08,31,05,14,0.00
2006,08,31,05,15,0.00
2006,08,31,05,16,0.00
2006,08,31,05,17,0.10
2006,08,31,05,18,1.30
2006,08,31,05,19,0.00
2006,08,31,05,20,0.10
2006,08,31,05,21,0.10
2006,08,31,05,22,0.00
2006,08,31,05,23,0.00
2006,08,31,05,24,0.00
2006,08,31,05,25,0.00
2006,08,31,05,26,0.00
2006,08,31,05,27,0.00
2006,08,31,05,28,0.00
2006,08,31,05,29,0.00
2006,08,31,05,30,0.00
2006,08,31,05,31,0.00
2006,08,31,05,32,0.00
2006,08,31,05,33,0.00
2006,08,31,05,34,0.00
2006,08,31,05,35,0.00
2006,08,31,05,36,0.00
2006,08,31,05,37,0.00
2006,08,31,05,38,0.00
2006,08,31,05,39,0.00
2006,08,31,05,40,0.00
2006,08,31,05,41,0.00
2006,08,31,05,42,0.00
2006,08,31,05,43,0.00
2006,08,31,05,44,0.30
2006,08,31,05,45,0.10
2006,08,31,05,46,0.00
2006,08,31,05,47,0.00
2006,08,31,05,48,0.00
2006,08,31,05,49,0.00
2006,08,31,05,50,0.00
2006,08,31,05,51,0.00
2006,08,31,05,52,0.00
2006,08,31,05,53,0.00
2006,08,31,05,54,0.00
2006,08,31,05,55,0.00
2006,08,31,05,56,0.00
2006,08,31,05,57,0.00
2006,08,31,05,58,0.00
2006,08,31,05,59,0.00
2006,08,31,06,00,0.00
2006,08,31,06,01,0.00
2006,08,31,06,02,0.00
2006,08,31,06,03,0.00
2006,08,31,06,04,0.00
2006,08,31,06,05,0.00
2006,08,31,06,06,0.00
2006,08,31,06,07,0.00
2006,08,31,06,08,0.00
2006,08,31,06,09,0.00
2006,08,31,06,10,0.00
2006,08,31,06,11,0.00
2006,08,31,06,12,0.10
2006,08,31,06,13,0.00
2006,08,31,06,14,0.00
2006,08,31,06,15,0.00
2006,08,31,06,16,0.00
2006,08,31,06,17,0.00
2006,08,31,06,18,0.00
2006,08,31,06,19,0.00
2006,08,31,06,20,0.00
2006,08,31,06,21,0.00
2006,08,31,06,22,0.80
2006,08,31,06,23,0.10
2006,08,31,06,24,0.00
2006,08,31,06,25,0.40
2006,08,31,06,26,1.50
2006,08,31,06,27,0.90
2006,08,31,06,28,0.00
2006,08,31,06,29,0.20
2006,08,31,06,30,2.10
2006,08,31,06,31,0.30
2006,08,31,06,32,0.10
2006,08,31,06,33,2.20
2006,08,31,06,34,0.40
2006,08,31,06,35,0.10
2006,08,31,06,36,0.10
2006,08,31,06,37,1.70
2006,08,31,06,38,0.10
2006,08,31,06,39,0.10
2006,08,31,06,40,0.00
2006,08,31,06,41,0.10
2006,08,31,06,42,0.00
2006,08,31,06,43,1.00
2006,08,31,06,44,0.40
2006,08,31,06,45,1.10
2006,08,31,06,46,0.10
2006,08,31,06,47,2.20
2006,08,31,06,48,1.70
2006,08,31,06,49,1.60
2006,08,31,06,50,0.80
2006,08,31,06,51,1.00
2006,08,31,06,52,1.50
2006,08,31,06,53,0.10
2006,08,31,06,54,0.40
2006,08,31,06,55,0.10
2006,08,31,06,56,0.00
2006,08,31,06,57,0.00
2006,08,31,06,58,0.00
2006,08,31,06,59,0.00
2006,08,31,07,00,0.00
2006,08,31,07,01,0.10
2006,08,31,07,02,0.00
2006,08,31,07,03,0.00
2006,08,31,07,04,0.00
2006,08,31,07,05,0.00
2006,08,31,07,06,0.00
2006,08,31,07,07,0.10
2006,08,31,07,08,0.00
2006,08,31,07,09,0.00
2006,08,31,07,10,0.00
2006,08,31,07,11,0.00
2006,08,31,07,12,0.00
2006,08,31,07,13,0.00
2006,08,31,07,14,0.00
2006,08,31,07,15,0.00
2006,08,31,07,16,0.00
2006,08,31,07,17,0.00
2006,08,31,07,18,0.00
2006,08,31,07,19,0.00
2006,08,31,07,20,0.10
2006,08,31,07,21,0.00
2006,08,31,07,22,0.00
2006,08,31,07,23,0.00
2006,08,31,07,24,0.00
2006,08,31,07,25,0.00
2006,08,31,07,26,0.00
2006,08,31,07,27,0.00
2006,08,31,07,28,0.00
2006,08,31,07,29,0.00
2006,08,31,07,30,0.00
2006,08,31,07,31,0.00
2006,08,31,07,32,0.00
2006,08,31,07,33,0.00
2006,08,31,07,34,0.00
2006,08,31,07,35,0.10
2006,08,31,07,36,0.00
2006,08,31,07,37,0.00
2006,08,31,07,38,0.00
2006,08,31,07,39,0.00
2006,08,31,07,40,0.90
2006,08,31,07,41,0.10
2006,08,31,07,42,0.10
2006,08,31,07,43,0.10
2006,08,31,07,44,0.10
2006,08,31,07,45,1.50
2006,08,31,07,46,3.20
2006,08,31,07,47,3.60
2006,08,31,07,48,3.90
2006,08,31,07,49,3.40
2006,08,31,07,50,1.60
2006,08,31,07,51,2.00
2006,08,31,07,52,4.00
2006,08,31,07,53,2.90
2006,08,31,07,54,2.30
2006,08,31,07,55,1.10
2006,08,31,07,56,0.10
2006,08,31,07,57,2.30
2006,08,31,07,58,2.70
2006,08,31,07,59,4.40
2006,08,31,08,00,4.40
2006,08,31,08,01,4.40
2006,08,31,08,02,5.40
2006,08,31,08,03,4.10
2006,08,31,08,04,4.20
2006,08,31,08,05,4.90
2006,08,31,08,06,6.70
2006,08,31,08,07,4.10
2006,08,31,08,08,4.40
2006,08,31,08,09,6.10
2006,08,31,08,10,2.60
2006,08,31,08,11,3.90
2006,08,31,08,12,5.30
2006,08,31,08,13,5.20
2006,08,31,08,14,3.40
2006,08,31,08,15,4.00
2006,08,31,08,16,6.90
2006,08,31,08,17,5.30
2006,08,31,08,18,6.00
2006,08,31,08,19,5.40
2006,08,31,08,20,9.40
2006,08,31,08,21,7.60
2006,08,31,08,22,8.50
2006,08,31,08,23,9.30
2006,08,31,08,24,8.50
2006,08,31,08,25,4.80
2006,08,31,08,26,5.70
2006,08,31,08,27,8.40
2006,08,31,08,28,10.20
2006,08,31,08,29,14.00
2006,08,31,08,30,12.30
2006,08,31,08,31,13.40
2006,08,31,08,32,11.90
2006,08,31,08,33,11.50
2006,08,31,08,34,9.90
2006,08,31,08,35,6.10
2006,08,31,08,36,10.60
2006,08,31,08,37,9.40
2006,08,31,08,38,10.00
2006,08,31,08,39,10.90
2006,08,31,08,40,10.30
2006,08,31,08,41,9.90
2006,08,31,08,42,8.90
2006,08,31,08,43,8.30
2006,08,31,08,44,9.70
2006,08,31,08,45,6.90
2006,08,31,08,46,5.50
2006,08,31,08,47,7.10
2006,08,31,08,48,6.20
2006,08,31,08,49,7.80
2006,08,31,08,50,3.70
2006,08,31,08,51,4.30
2006,08,31,08,52,5.70
2006,08,31,08,53,2.20
2006,08,31,08,54,4.70
2006,08,31,08,55,9.00
2006,08,31,08,56,6.80
2006,08,31,08,57,11.40
2006,08,31,08,58,12.40
2006,08,31,08,59,7.70
2006,08,31,09,00,8.60
2006,08,31,09,01,5.70
2006,08,31,09,02,7.50
2006,08,31,09,03,8.80
2006,08,31,09,04,10.80
2006,08,31,09,05,7.20
2006,08,31,09,06,7.70
2006,08,31,09,07,6.70
2006,08,31,09,08,9.60
2006,08,31,09,09,11.30
2006,08,31,09,10,11.30
2006,08,31,09,11,7.10
2006,08,31,09,12,10.60
2006,08,31,09,13,8.30
2006,08,31,09,14,4.30
2006,08,31,09,15,11.00
2006,08,31,09,16,10.00
2006,08,31,09,17,10.50
2006,08,31,09,18,14.50
2006,08,31,09,19,11.80
2006,08,31,09,20,7.50
2006,08,31,09,21,8.90
2006,08,31,09,22,6.10
2006,08,31,09,23,7.20
2006,08,31,09,24,5.70
2006,08,31,09,25,9.00
2006,08,31,09,26,9.70
2006,08,31,09,27,6.10
2006,08,31,09,28,6.00
2006,08,31,09,29,10.20
2006,08,31,09,30,14.00
2006,08,31,09,31,7.10
2006,08,31,09,32,8.10
2006,08,31,09,33,6.00
2006,08,31,09,34,7.60
2006,08,31,09,35,8.70
2006,08,31,09,36,6.60
2006,08,31,09,37,8.30
2006,08,31,09,38,8.10
2006,08,31,09,39,6.70
2006,08,31,09,40,13.90
2006,08,31,09,41,14.30
2006,08,31,09,42,9.80
2006,08,31,09,43,12.90
2006,08,31,09,44,12.10
2006,08,31,09,45,7.90
2006,08,31,09,46,5.10
2006,08,31,09,47,5.40
2006,08,31,09,48,11.80
2006,08,31,09,49,11.10
2006,08,31,09,50,16.30
2006,08,31,09,51,8.70
2006,08,31,09,52,5.00
2006,08,31,09,53,7.70
2006,08,31,09,54,5.30
2006,08,31,09,55,3.80
2006,08,31,09,56,8.60
2006,08,31,09,57,7.50
2006,08,31,09,58,9.40
2006,08,31,09,59,8.80
2006,08,31,10,00,9.00
2006,08,31,10,01,11.60
2006,08,31,10,02,9.40
2006,08,31,10,03,7.80
2006,08,31,10,04,12.00
2006,08,31,10,05,11.10
2006,08,31,10,06,11.80
2006,08,31,10,07,16.10
2006,08,31,10,08,13.00
2006,08,31,10,09,12.00
2006,08,31,10,10,10.10
2006,08,31,10,11,9.80
2006,08,31,10,12,11.90
2006,08,31,10,13,11.30
2006,08,31,10,14,18.00
2006,08,31,10,15,13.20
2006,08,31,10,16,8.00
2006,08,31,10,17,11.30
2006,08,31,10,18,6.00
2006,08,31,10,19,10.70
2006,08,31,10,20,9.60
2006,08,31,10,21,8.50
2006,08,31,10,22,5.70
2006,08,31,10,23,6.60
2006,08,31,10,24,6.40
2006,08,31,10,25,6.70
2006,08,31,10,26,6.90
2006,08,31,10,27,8.20
2006,08,31,10,28,12.50
2006,08,31,10,29,13.70
2006,08,31,10,30,14.20
2006,08,31,10,31,10.20
2006,08,31,10,32,16.40
2006,08,31,10,33,7.90
2006,08,31,10,34,7.70
2006,08,31,10,35,8.50
2006,08,31,10,36,8.40
2006,08,31,10,37,11.10
2006,08,31,10,38,7.40
2006,08,31,10,39,4.80
2006,08,31,10,40,7.00
2006,08,31,10,41,11.50
2006,08,31,10,42,11.50
2006,08,31,10,43,7.60
2006,08,31,10,44,9.70
2006,08,31,10,45,11.60
2006,08,31,10,46,7.30
2006,08,31,10,47,5.90
2006,08,31,10,48,6.60
2006,08,31,10,49,10.20
2006,08,31,10,50,9.60
2006,08,31,10,51,10.20
2006,08,31,10,52,10.40
2006,08,31,10,53,10.20
2006,08,31,10,54,10.20
2006,08,31,10,55,9.40
2006,08,31,10,56,9.20
2006,08,31,10,57,9.30
2006,08,31,10,58,14.30
2006,08,31,10,59,15.40
2006,08,31,11,00,15.90
2006,08,31,11,01,12.90
2006,08,31,11,02,14.40
2006,08,31,11,03,11.70
2006,08,31,11,04,15.60
2006,08,31,11,05,15.30
2006,08,31,11,06,11.80
2006,08,31,11,07,8.90
2006,08,31,11,08,13.20
2006,08,31,11,09,10.40
2006,08,31,11,10,16.10
2006,08,31,11,11,9.70
2006,08,31,11,12,13.50
2006,08,31,11,13,12.80
2006,08,31,11,14,14.50
2006,08,31,11,15,12.20
2006,08,31,11,16,17.90
2006,08,31,11,17,13.80
2006,08,31,11,18,12.20
2006,08,31,11,19,10.50
2006,08,31,11,20,13.00
2006,08,31,11,21,14.70
2006,08,31,11,22,12.30
2006,08,31,11,23,10.80
2006,08,31,11,24,9.90
2006,08,31,11,25,8.70
2006,08,31,11,26,6.40
2006,08,31,11,27,9.70
2006,08,31,11,28,6.40
2006,08,31,11,29,8.00
2006,08,31,11,30,9.20
2006,08,31,11,31,11.60
2006,08,31,11,32,6.60
2006,08,31,11,33,11.60
2006,08,31,11,34,12.50
2006,08,31,11,35,9.10
2006,08,31,11,36,10.00
2006,08,31,11,37,15.40
2006,08,31,11,38,11.30
2006,08,31,11,39,10.30
2006,08,31,11,40,15.60
2006,08,31,11,41,10.80
2006,08,31,11,42,11.30
2006,08,31,11,43,11.80
2006,08,31,11,44,15.30
2006,08,31,11,45,10.40
2006,08,31,11,46,10.20
2006,08,31,11,47,11.90
2006,08,31,11,48,8.00
2006,08,31,11,49,7.50
2006,08,31,11,50,10.20
2006,08,31,11,51,9.80
2006,08,31,11,52,10.20
2006,08,31,11,53,7.90
2006,08,31,11,54,12.00
2006,08,31,11,55,8.90
2006,08,31,11,56,12.90
2006,08,31,11,57,8.60
2006,08,31,11,58,13.70
2006,08,31,11,59,15.10
2006,08,31,12,00,6.40
2006,08,31,12,01,9.70
2006,08,31,12,02,9.00
2006,08,31,12,03,10.70
2006,08,31,12,04,12.90
2006,08,31,12,05,9.00
2006,08,31,12,06,8.20
2006,08,31,12,07,7.10
2006,08,31,12,08,7.50
2006,08,31,12,09,4.80
2006,08,31,12,10,9.00
2006,08,31,12,11,12.40
2006,08,31,12,12,10.10
2006,08,31,12,13,8.20
2006,08,31,12,14,6.40
2006,08,31,12,15,11.50
2006,08,31,12,16,9.70
2006,08,31,12,17,7.20
2006,08,31,12,18,12.80
2006,08,31,12,19,6.80
2006,08,31,12,20,9.20
2006,08,31,12,21,11.00
2006,08,31,12,22,14.00
2006,08,31,12,23,8.80
2006,08,31,12,24,13.40
2006,08,31,12,25,4.90
2006,08,31,12,26,9.90
2006,08,31,12,27,15.10
2006,08,31,12,28,9.60
2006,08,31,12,29,8.30
2006,08,31,12,30,13.50
2006,08,31,12,31,7.80
2006,08,31,12,32,11.60
2006,08,31,12,33,9.90
2006,08,31,12,34,9.20
2006,08,31,12,35,8.30
2006,08,31,12,36,8.30
2006,08,31,12,37,14.10
2006,08,31,12,38,8.50
2006,08,31,12,39,15.10
2006,08,31,12,40,8.50
2006,08,31,12,41,10.30
2006,08,31,12,42,8.70
2006,08,31,12,43,11.80
2006,08,31,12,44,8.20
2006,08,31,12,45,6.90
2006,08,31,12,46,11.00
2006,08,31,12,47,8.00
2006,08,31,12,48,11.10
2006,08,31,12,49,6.20
2006,08,31,12,50,5.20
2006,08,31,12,51,7.10
2006,08,31,12,52,7.00
2006,08,31,12,53,7.30
2006,08,31,12,54,8.70
2006,08,31,12,55,7.60
2006,08,31,12,56,9.40
2006,08,31,12,57,9.00
2006,08,31,12,58,13.40
2006,08,31,12,59,12.00
2006,08,31,13,00,9.30
2006,08,31,13,01,5.80
2006,08,31,13,02,4.80
2006,08,31,13,03,5.80
2006,08,31,13,04,8.50
2006,08,31,13,05,10.10
2006,08,31,13,06,12.90
2006,08,31,13,07,9.90
2006,08,31,13,08,7.30
2006,08,31,13,09,10.80
2006,08,31,13,10,12.00
2006,08,31,13,11,9.40
2006,08,31,13,12,9.70
2006,08,31,13,13,8.60
2006,08,31,13,14,10.20
2006,08,31,13,15,11.70
2006,08,31,13,16,9.70
2006,08,31,13,17,16.50
2006,08,31,13,18,7.00
2006,08,31,13,19,8.70
2006,08,31,13,20,11.60
2006,08,31,13,21,9.50
2006,08,31,13,22,10.20
2006,08,31,13,23,5.70
2006,08,31,13,24,8.70
2006,08,31,13,25,8.30
2006,08,31,13,26,11.50
2006,08,31,13,27,6.20
2006,08,31,13,28,10.90
2006,08,31,13,29,10.40
2006,08,31,13,30,8.60
2006,08,31,13,31,4.50
2006,08,31,13,32,7.40
2006,08,31,13,33,9.60
2006,08,31,13,34,7.60
2006,08,31,13,35,6.40
2006,08,31,13,36,7.90
2006,08,31,13,37,9.70
2006,08,31,13,38,11.40
2006,08,31,13,39,9.50
2006,08,31,13,40,10.60
2006,08,31,13,41,14.00
2006,08,31,13,42,9.90
2006,08,31,13,43,8.20
2006,08,31,13,44,6.70
2006,08,31,13,45,13.30
2006,08,31,13,46,8.90
2006,08,31,13,47,12.20
2006,08,31,13,48,11.40
2006,08,31,13,49,12.70
2006,08,31,13,50,10.60
2006,08,31,13,51,8.90
2006,08,31,13,52,11.00
2006,08,31,13,53,9.40
2006,08,31,13,54,7.70
2006,08,31,13,55,9.80
2006,08,31,13,56,7.80
2006,08,31,13,57,10.60
2006,08,31,13,58,8.00
2006,08,31,13,59,8.20
2006,08,31,14,00,8.90
2006,08,31,14,01,5.70
2006,08,31,14,02,5.20
2006,08,31,14,03,14.00
2006,08,31,14,04,12.10
2006,08,31,14,05,7.20
2006,08,31,14,06,8.00
2006,08,31,14,07,14.60
2006,08,31,14,08,10.80
2006,08,31,14,09,8.40
2006,08,31,14,10,8.20
2006,08,31,14,11,14.60
2006,08,31,14,12,13.20
2006,08,31,14,13,9.50
2006,08,31,14,14,9.20
2006,08,31,14,15,9.40
2006,08,31,14,16,11.80
2006,08,31,14,17,6.20
2006,08,31,14,18,5.70
2006,08,31,14,19,4.50
2006,08,31,14,20,7.50
2006,08,31,14,21,9.80
2006,08,31,14,22,8.40
2006,08,31,14,23,9.10
2006,08,31,14,24,10.90
2006,08,31,14,25,8.30
2006,08,31,14,26,12.00
2006,08,31,14,27,14.90
2006,08,31,14,28,10.10
2006,08,31,14,29,7.40
2006,08,31,14,30,15.80
2006,08,31,14,31,13.50
2006,08,31,14,32,3.70
2006,08,31,14,33,8.40
2006,08,31,14,34,12.50
2006,08,31,14,35,5.30
2006,08,31,14,36,7.80
2006,08,31,14,37,11.90
2006,08,31,14,38,10.20
2006,08,31,14,39,8.90
2006,08,31,14,40,14.10
2006,08,31,14,41,11.10
2006,08,31,14,42,6.00
2006,08,31,14,43,12.10
2006,08,31,14,44,9.50
2006,08,31,14,45,14.60
2006,08,31,14,46,9.40
2006,08,31,14,47,11.30
2006,08,31,14,48,9.50
2006,08,31,14,49,11.60
2006,08,31,14,50,10.60
2006,08,31,14,51,7.60
2006,08,31,14,52,8.80
2006,08,31,14,53,15.70
2006,08,31,14,54,9.20
2006,08,31,14,55,5.20
2006,08,31,14,56,8.50
2006,08,31,14,57,5.50
2006,08,31,14,58,8.00
2006,08,31,14,59,10.10
2006,08,31,15,00,8.70
2006,08,31,15,01,6.20
2006,08,31,15,02,9.90
2006,08,31,15,03,8.60
2006,08,31,15,04,5.00
2006,08,31,15,05,5.80
2006,08,31,15,06,14.10
2006,08,31,15,07,14.50
2006,08,31,15,08,11.20
2006,08,31,15,09,6.70
2006,08,31,15,10,8.90
2006,08,31,15,11,7.30
2006,08,31,15,12,10.60
2006,08,31,15,13,7.90
2006,08,31,15,14,7.60
2006,08,31,15,15,10.30
2006,08,31,15,16,11.10
2006,08,31,15,17,10.60
2006,08,31,15,18,11.80
2006,08,31,15,19,11.50
2006,08,31,15,20,9.70
2006,08,31,15,21,10.80
2006,08,31,15,22,10.20
2006,08,31,15,23,12.40
2006,08,31,15,24,13.70
2006,08,31,15,25,10.00
2006,08,31,15,26,11.80
2006,08,31,15,27,11.20
2006,08,31,15,28,5.90
2006,08,31,15,29,13.30
2006,08,31,15,30,13.00
2006,08,31,15,31,9.20
2006,08,31,15,32,8.70
2006,08,31,15,33,8.30
2006,08,31,15,34,6.50
2006,08,31,15,35,7.50
2006,08,31,15,36,9.90
2006,08,31,15,37,9.30
2006,08,31,15,38,14.60
2006,08,31,15,39,11.30
2006,08,31,15,40,13.40
2006,08,31,15,41,6.80
2006,08,31,15,42,13.90
2006,08,31,15,43,7.90
2006,08,31,15,44,6.70
2006,08,31,15,45,10.50
2006,08,31,15,46,11.60
2006,08,31,15,47,8.70
2006,08,31,15,48,7.20
2006,08,31,15,49,7.10
2006,08,31,15,50,9.90
2006,08,31,15,51,9.20
2006,08,31,15,52,8.30
2006,08,31,15,53,11.60
2006,08,31,15,54,13.50
2006,08,31,15,55,9.40
2006,08,31,15,56,9.10
2006,08,31,15,57,12.00
2006,08,31,15,58,7.30
2006,08,31,15,59,6.00
2006,08,31,16,00,11.30
2006,08,31,16,01,16.30
2006,08,31,16,02,15.00
2006,08,31,16,03,14.10
2006,08,31,16,04,12.00
2006,08,31,16,05,17.10
2006,08,31,16,06,18.50
2006,08,31,16,07,9.60
2006,08,31,16,08,8.40
2006,08,31,16,09,9.80
2006,08,31,16,10,11.50
2006,08,31,16,11,13.60
2006,08,31,16,12,11.10
2006,08,31,16,13,9.60
2006,08,31,16,14,16.10
2006,08,31,16,15,9.90
2006,08,31,16,16,10.50
2006,08,31,16,17,12.60
2006,08,31,16,18,12.30
2006,08,31,16,19,11.10
2006,08,31,16,20,8.40
2006,08,31,16,21,11.80
2006,08,31,16,22,8.90
2006,08,31,16,23,9.00
2006,08,31,16,24,8.80
2006,08,31,16,25,7.40
2006,08,31,16,26,7.30
2006,08,31,16,27,7.00
2006,08,31,16,28,11.30
2006,08,31,16,29,14.40
2006,08,31,16,30,7.80
2006,08,31,16,31,10.90
2006,08,31,16,32,9.10
2006,08,31,16,33,12.10
2006,08,31,16,34,12.20
2006,08,31,16,35,8.90
2006,08,31,16,36,5.80
2006,08,31,16,37,4.50
2006,08,31,16,38,10.10
2006,08,31,16,39,9.20
2006,08,31,16,40,9.00
2006,08,31,16,41,11.30
2006,08,31,16,42,6.40
2006,08,31,16,43,5.20
2006,08,31,16,44,10.20
2006,08,31,16,45,8.90
2006,08,31,16,46,10.40
2006,08,31,16,47,10.10
2006,08,31,16,48,8.00
2006,08,31,16,49,9.60
2006,08,31,16,50,7.10
2006,08,31,16,51,8.90
2006,08,31,16,52,12.30
2006,08,31,16,53,8.80
2006,08,31,16,54,13.30
2006,08,31,16,55,14.80
2006,08,31,16,56,11.80
2006,08,31,16,57,12.60
2006,08,31,16,58,12.90
2006,08,31,16,59,15.20
2006,08,31,17,00,10.50
2006,08,31,17,01,10.80
2006,08,31,17,02,14.10
2006,08,31,17,03,12.30
2006,08,31,17,04,13.30
2006,08,31,17,05,13.60
2006,08,31,17,06,11.30
2006,08,31,17,07,8.90
2006,08,31,17,08,12.80
2006,08,31,17,09,13.70
2006,08,31,17,10,13.40
2006,08,31,17,11,11.30
2006,08,31,17,12,9.00
2006,08,31,17,13,9.90
2006,08,31,17,14,7.10
2006,08,31,17,15,7.30
2006,08,31,17,16,12.40
2006,08,31,17,17,9.20
2006,08,31,17,18,11.80
2006,08,31,17,19,10.40
2006,08,31,17,20,13.00
2006,08,31,17,21,8.60
2006,08,31,17,22,7.80
2006,08,31,17,23,8.00
2006,08,31,17,24,9.20
2006,08,31,17,25,13.10
2006,08,31,17,26,10.30
2006,08,31,17,27,8.50
2006,08,31,17,28,10.80
2006,08,31,17,29,8.00
2006,08,31,17,30,9.70
2006,08,31,17,31,8.90
2006,08,31,17,32,7.40
2006,08,31,17,33,8.20
2006,08,31,17,34,14.20
2006,08,31,17,35,7.90
2006,08,31,17,36,7.80
2006,08,31,17,37,11.60
2006,08,31,17,38,12.00
2006,08,31,17,39,6.70
2006,08,31,17,40,12.30
2006,08,31,17,41,13.40
2006,08,31,17,42,11.30
2006,08,31,17,43,7.80
2006,08,31,17,44,9.40
2006,08,31,17,45,6.70
2006,08,31,17,46,7.10
2006,08,31,17,47,7.90
2006,08,31,17,48,5.40
2006,08,31,17,49,4.20
2006,08,31,17,50,10.30
2006,08,31,17,51,7.00
2006,08,31,17,52,11.20
2006,08,31,17,53,6.60
2006,08,31,17,54,7.20
2006,08,31,17,55,9.30